Weather in Ust'-Kuyga

Russia / Sakha (Yakutia) Republic     70°00′15″N   135°32′55″E
temp.,
°C
wind,
m/s
gust,
m/s
humid.,
%
clouds,
%
prec.,
mm/h
press.,
hPa
HPBL,
m
13 may, thu
thu1301:00−14n119770 0.0 101710
04:00−16n1110093 0.0 10179
07:00−11s119694 0.1 101663
10:00−7s228767 0.1 1015229
13:00−4s228453 0.0 1014358
16:00−3ssw23826 0.0 1013405
19:00−3ssw22868 0.0 101373
22:00−9ssw119454 0.0 101410
14 may, fri
fri1401:00−11ssw1197100 0.0 101410
04:00−10s2296100 0.0 101411
07:00−5s2288100 0.0 101481
10:00−2s238375 0.0 1013196
13:00−1s349582 0.0 1013222
16:000s2410069 0.0 1013204
19:000s229855 0.0 101235
22:00−4sse119672 0.0 101210
15 may, sat
sat1501:00−5s119476 0.0 101211
04:00−6s229459 0.0 101113
07:00−2s338320 0.0 101062
10:00+1s349246 0.0 1009120
13:00+2ssw3510063 0.0 1008137
16:00+4s349263 0.0 100755
19:00+4sse227819 0.0 100614
22:00+1sse22735 0.0 100711
16 may, sun
sun1601:00−2sse11715 0.0 100610
04:00−2ssw226816 0.0 100611
07:00+1s22665 0.0 100623
10:00+5s236748 0.0 100668
13:00+8ssw354541 0.0 1005336
16:00+10ssw353724 0.0 1005665
19:00+9e22515 0.0 100411
22:00+4e226111 0.0 100410
17 may, mon
mon1701:00+3e116913 0.0 100410
04:00+2ese11654 0.0 100310
07:00+6e225295 0.0 100339
10:00+8sse224598 0.0 1002297
13:00+10ssw244956 0.0 1002898
16:00+12ssw234672 0.0 10011075
19:00+12ese334633 0.1 10011241
22:00+8ne22635 0.1 100112